GLO1028 SBSP-SBRJ

Flight info

Callsign GLO1028
Flight time 0h 37m
Altitude 27000
Route NIBRU UZ171 KEVUN
Aircraft B738/M-SDE2E3FGHIRWXY/LB1

Departure

Time 2026-05-06 19:11
Airport Congonhas–Deputado Freitas Nobre Airport (SBSP)

Arrival

Time 2026-05-06 19:48
Airport Santos Dumont Airport (SBRJ)
Time Latitude Longitude Altitude Speed Heading
2026-05-06 19:00 -23.62598 -46.65902 2600 ft 0 kts 237°
2026-05-06 19:06 -23.62591 -46.65891 2600 ft 3 kts 237°
2026-05-06 19:06 -23.62582 -46.65873 2600 ft 3 kts 263°
2026-05-06 19:07 -23.62588 -46.65855 2600 ft 3 kts 326°
2026-05-06 19:07 -23.62590 -46.65853 2600 ft 0 kts 326°
2026-05-06 19:08 -23.62589 -46.65854 2673 ft 1 kts 326°
2026-05-06 19:08 -23.62571 -46.65867 2582 ft 6 kts 330°
2026-05-06 19:08 -23.62515 -46.65862 2582 ft 10 kts 346°
2026-05-06 19:08 -23.62437 -46.65914 2616 ft 16 kts 328°
2026-05-06 19:09 -23.62327 -46.65989 2599 ft 21 kts 328°
2026-05-06 19:09 -23.62190 -46.66078 2596 ft 24 kts 331°
2026-05-06 19:09 -23.62071 -46.66137 2596 ft 17 kts
2026-05-06 19:09 -23.62038 -46.66100 2590 ft 1 kts 85°
2026-05-06 19:10 -23.62067 -46.66063 2593 ft 13 kts 144°
2026-05-06 19:10 -23.62190 -46.65977 2591 ft 40 kts 148°
2026-05-06 19:10 -23.62661 -46.65649 2605 ft 119 kts 147°
2026-05-06 19:10 -23.63544 -46.65049 2753 ft 170 kts 147°
2026-05-06 19:11 -23.64574 -46.64354 3545 ft 178 kts 144°
2026-05-06 19:11 -23.65407 -46.63358 4379 ft 188 kts 117°
2026-05-06 19:11 -23.66044 -46.61963 4653 ft 223 kts 115°
2026-05-06 19:11 -23.66770 -46.60360 5014 ft 249 kts 115°
2026-05-06 19:12 -23.67583 -46.58593 5444 ft 268 kts 116°
2026-05-06 19:12 -23.68451 -46.56755 6251 ft 274 kts 116°
2026-05-06 19:12 -23.69345 -46.54903 7097 ft 276 kts 116°
2026-05-06 19:12 -23.70259 -46.53029 7811 ft 283 kts 116°
2026-05-06 19:13 -23.71189 -46.51118 8577 ft 287 kts 116°
2026-05-06 19:13 -23.71900 -46.49088 9308 ft 288 kts 95°
2026-05-06 19:13 -23.71832 -46.46925 10080 ft 287 kts 81°
2026-05-06 19:13 -23.71534 -46.44736 10555 ft 300 kts 79°
2026-05-06 19:14 -23.71302 -46.43205 10653 ft 316 kts 79°
2026-05-06 19:14 -23.70926 -46.40757 10852 ft 336 kts 79°
2026-05-06 19:14 -23.70538 -46.38198 11276 ft 346 kts 80°
2026-05-06 19:14 -23.70156 -46.35610 11979 ft 346 kts 81°
2026-05-06 19:15 -23.69777 -46.33005 12601 ft 349 kts 81°
2026-05-06 19:15 -23.69398 -46.30369 13181 ft 353 kts 82°
2026-05-06 19:15 -23.69019 -46.27726 13869 ft 354 kts 82°
2026-05-06 19:15 -23.68638 -46.25055 14320 ft 359 kts 82°
2026-05-06 19:16 -23.68250 -46.22342 14760 ft 364 kts 82°
2026-05-06 19:16 -23.67859 -46.19607 15276 ft 366 kts 82°
2026-05-06 19:16 -23.67465 -46.16860 15807 ft 367 kts 82°
2026-05-06 19:16 -23.67069 -46.14112 16347 ft 368 kts 83°
2026-05-06 19:17 -23.66669 -46.11324 16679 ft 375 kts 83°
2026-05-06 19:17 -23.66263 -46.08494 17057 ft 380 kts 83°
2026-05-06 19:17 -23.65853 -46.05636 17469 ft 384 kts 83°
2026-05-06 19:17 -23.65439 -46.02752 17905 ft 386 kts 83°
2026-05-06 19:18 -23.65021 -45.99856 18376 ft 387 kts 83°
2026-05-06 19:18 -23.64602 -45.96954 18798 ft 387 kts 83°
2026-05-06 19:18 -23.64181 -45.94037 19110 ft 392 kts 83°
2026-05-06 19:18 -23.63756 -45.91088 19374 ft 396 kts 83°
2026-05-06 19:19 -23.63325 -45.88107 19688 ft 399 kts 83°
2026-05-06 19:19 -23.62890 -45.85107 20036 ft 401 kts 83°
2026-05-06 19:19 -23.62453 -45.82101 20409 ft 402 kts 83°
2026-05-06 19:19 -23.62015 -45.79087 20792 ft 403 kts 83°
2026-05-06 19:20 -23.61574 -45.76056 21051 ft 407 kts 83°
2026-05-06 19:20 -23.61129 -45.73002 21344 ft 409 kts 83°
2026-05-06 19:20 -23.60681 -45.69935 21658 ft 411 kts 83°
2026-05-06 19:20 -23.60230 -45.66850 21899 ft 414 kts 83°
2026-05-06 19:21 -23.59775 -45.63738 22092 ft 418 kts 83°
2026-05-06 19:21 -23.59315 -45.60597 22341 ft 421 kts 83°
2026-05-06 19:21 -23.58853 -45.57454 22863 ft 414 kts 83°
2026-05-06 19:21 -23.58404 -45.54404 23679 ft 402 kts 82°
2026-05-06 19:22 -23.57966 -45.51435 24333 ft 391 kts 83°
2026-05-06 19:22 -23.57540 -45.48545 24889 ft 383 kts 83°
2026-05-06 19:22 -23.57094 -45.45675 25108 ft 387 kts 81°
2026-05-06 19:22 -23.56525 -45.42771 25136 ft 397 kts 79°
2026-05-06 19:23 -23.55885 -45.39810 25149 ft 406 kts 78°
2026-05-06 19:23 -23.55217 -45.36788 25158 ft 414 kts 78°
2026-05-06 19:23 -23.54538 -45.33701 25153 ft 422 kts 78°
2026-05-06 19:23 -23.53856 -45.30562 25140 ft 429 kts 78°
2026-05-06 19:24 -23.53170 -45.27374 25147 ft 436 kts 79°
2026-05-06 19:24 -23.52478 -45.24133 25140 ft 442 kts 79°
2026-05-06 19:24 -23.51778 -45.20844 25147 ft 448 kts 79°
2026-05-06 19:24 -23.51080 -45.17559 25142 ft 454 kts 79°
2026-05-06 19:25 -23.50365 -45.14188 25142 ft 461 kts 79°
2026-05-06 19:25 -23.49638 -45.10762 25146 ft 467 kts 79°
2026-05-06 19:25 -23.48898 -45.07293 25141 ft 473 kts 78°
2026-05-06 19:25 -23.48145 -45.03783 25138 ft 478 kts 78°
2026-05-06 19:26 -23.47385 -45.00240 25139 ft 482 kts 78°
2026-05-06 19:26 -23.46621 -44.96674 25139 ft 487 kts 78°
2026-05-06 19:26 -23.45843 -44.93070 25138 ft 490 kts 78°
2026-05-06 19:26 -23.45047 -44.89448 25135 ft 493 kts 78°
2026-05-06 19:27 -23.44237 -44.85802 25131 ft 496 kts 78°
2026-05-06 19:27 -23.43421 -44.82146 25129 ft 499 kts 78°
2026-05-06 19:27 -23.42612 -44.78521 24884 ft 507 kts 78°
2026-05-06 19:27 -23.41781 -44.74799 25029 ft 505 kts 78°
2026-05-06 19:28 -23.40950 -44.71077 25011 ft 507 kts 78°
2026-05-06 19:28 -23.40125 -44.67385 24952 ft 497 kts 78°
2026-05-06 19:28 -23.39312 -44.63753 24860 ft 491 kts 78°
2026-05-06 19:28 -23.38509 -44.60165 24638 ft 488 kts 78°
2026-05-06 19:29 -23.37706 -44.56574 24352 ft 487 kts 77°
2026-05-06 19:29 -23.36903 -44.52994 23942 ft 489 kts 77°
2026-05-06 19:29 -23.36135 -44.49578 23595 ft 490 kts 77°
2026-05-06 19:29 -23.35330 -44.46010 23388 ft 488 kts 77°
2026-05-06 19:30 -23.34515 -44.42437 23249 ft 485 kts 76°
2026-05-06 19:30 -23.33400 -44.38966 22701 ft 490 kts 67°
2026-05-06 19:30 -23.31967 -44.35664 21851 ft 485 kts 64°
2026-05-06 19:30 -23.30488 -44.32500 21659 ft 455 kts 64°
2026-05-06 19:31 -23.29103 -44.29520 21419 ft 429 kts 64°
2026-05-06 19:31 -23.27795 -44.26627 20552 ft 423 kts 65°
2026-05-06 19:31 -23.25307 -44.20918 18476 ft 422 kts 66°
2026-05-06 19:32 -23.24065 -44.18024 17228 ft 422 kts 66°
2026-05-06 19:32 -23.22826 -44.15138 16007 ft 421 kts 66°
2026-05-06 19:32 -23.21586 -44.12256 14832 ft 419 kts 65°
2026-05-06 19:32 -23.20352 -44.09395 13661 ft 416 kts 65°
2026-05-06 19:33 -23.19112 -44.06575 12696 ft 407 kts 64°
2026-05-06 19:33 -23.17885 -44.03916 12474 ft 380 kts 63°
2026-05-06 19:33 -23.16735 -44.01438 12298 ft 355 kts 63°
2026-05-06 19:33 -23.15661 -43.99112 12156 ft 334 kts 64°
2026-05-06 19:34 -23.14694 -43.96905 12021 ft 314 kts 65°
2026-05-06 19:34 -23.13802 -43.94809 11903 ft 297 kts 65°
2026-05-06 19:34 -23.12967 -43.92835 11722 ft 284 kts 65°
2026-05-06 19:34 -23.12145 -43.90896 11219 ft 283 kts 65°
2026-05-06 19:35 -23.11305 -43.88922 10507 ft 291 kts 65°
2026-05-06 19:35 -23.10445 -43.86906 9805 ft 297 kts 65°
2026-05-06 19:35 -23.09575 -43.84869 9062 ft 301 kts 65°
2026-05-06 19:35 -23.08714 -43.82858 8975 ft 282 kts 65°
2026-05-06 19:36 -23.07913 -43.80984 8846 ft 266 kts 65°
2026-05-06 19:36 -23.07150 -43.79203 8715 ft 256 kts 65°
2026-05-06 19:36 -23.06407 -43.77471 8563 ft 250 kts 65°
2026-05-06 19:36 -23.05684 -43.75783 8442 ft 243 kts 64°
2026-05-06 19:37 -23.04978 -43.74139 8306 ft 237 kts 65°
2026-05-06 19:37 -23.04291 -43.72539 8180 ft 230 kts 65°
2026-05-06 19:37 -23.03625 -43.70989 8056 ft 223 kts 64°
2026-05-06 19:37 -23.02976 -43.69484 7888 ft 218 kts 64°
2026-05-06 19:38 -23.02332 -43.68008 7706 ft 214 kts 64°
2026-05-06 19:38 -23.01699 -43.66562 7516 ft 210 kts 64°
2026-05-06 19:38 -23.01080 -43.65148 7333 ft 205 kts 64°
2026-05-06 19:38 -23.00474 -43.63764 7143 ft 201 kts 64°
2026-05-06 19:39 -22.99881 -43.62410 6994 ft 195 kts 64°
2026-05-06 19:39 -22.99308 -43.61105 6868 ft 188 kts 64°
2026-05-06 19:39 -22.98732 -43.59794 6392 ft 202 kts 64°
2026-05-06 19:39 -22.98115 -43.58392 6072 ft 205 kts 64°
2026-05-06 19:40 -22.97519 -43.57034 6000 ft 194 kts 64°
2026-05-06 19:40 -22.96942 -43.55722 6021 ft 193 kts 64°
2026-05-06 19:40 -22.96358 -43.54399 6054 ft 201 kts 64°
2026-05-06 19:40 -22.95732 -43.52976 6043 ft 211 kts 64°
2026-05-06 19:41 -22.95102 -43.51546 6034 ft 216 kts 64°
2026-05-06 19:41 -22.94446 -43.50028 5899 ft 231 kts 65°
2026-05-06 19:41 -22.93749 -43.48381 5679 ft 246 kts 65°
2026-05-06 19:41 -22.93027 -43.46671 5390 ft 253 kts 65°
2026-05-06 19:42 -22.92283 -43.44909 5132 ft 261 kts 65°
2026-05-06 19:42 -22.91513 -43.43091 4864 ft 267 kts 65°
2026-05-06 19:42 -22.90738 -43.41262 4537 ft 266 kts 65°
2026-05-06 19:42 -22.89967 -43.39444 4260 ft 264 kts 65°
2026-05-06 19:43 -22.89205 -43.37650 3961 ft 258 kts 65°
2026-05-06 19:43 -22.88465 -43.35905 3697 ft 251 kts 65°
2026-05-06 19:43 -22.87818 -43.34174 3429 ft 245 kts 70°
2026-05-06 19:43 -22.87275 -43.32449 3196 ft 237 kts 71°
2026-05-06 19:44 -22.86757 -43.30796 2949 ft 227 kts 71°
2026-05-06 19:44 -22.86254 -43.29208 2686 ft 219 kts 70°
2026-05-06 19:44 -22.85766 -43.27680 2444 ft 209 kts 71°
2026-05-06 19:44 -22.85488 -43.26190 2184 ft 197 kts 94°
2026-05-06 19:45 -22.85705 -43.24790 1982 ft 181 kts 98°
2026-05-06 19:45 -22.85888 -43.23488 1740 ft 169 kts 98°
2026-05-06 19:45 -22.86060 -43.22255 1548 ft 162 kts 97°
2026-05-06 19:45 -22.86226 -43.21060 1314 ft 159 kts 98°
2026-05-06 19:46 -22.86390 -43.19891 1094 ft 154 kts 99°
2026-05-06 19:46 -22.86538 -43.18824 1108 ft 131 kts 99°
2026-05-06 19:46 -22.86736 -43.17891 927 ft 128 kts 110°
2026-05-06 19:46 -22.87215 -43.17085 780 ft 130 kts 137°
2026-05-06 19:47 -22.88040 -43.16620 509 ft 137 kts 161°
2026-05-06 19:47 -22.88957 -43.16406 336 ft 132 kts 174°
2026-05-06 19:47 -22.89859 -43.16356 154 ft 128 kts 178°
2026-05-06 19:47 -22.90720 -43.16306 29 ft 116 kts 177°
2026-05-06 19:48 -22.91222 -43.16272 19 ft 49 kts 176°
2026-05-06 19:48 -22.91342 -43.16321 19 ft 17 kts 263°
2026-05-06 19:48 -22.91352 -43.16446 21 ft 16 kts 265°
2026-05-06 19:48 -22.91300 -43.16508 21 ft 12 kts 355°
2026-05-06 19:49 -22.91218 -43.16513 21 ft 12 kts 357°
2026-05-06 19:49 -22.91137 -43.16518 21 ft 11 kts 355°
2026-05-06 19:49 -22.91061 -43.16534 21 ft 11 kts 353°
2026-05-06 19:49 -22.91025 -43.16537 22 ft 0 kts 356°
2026-05-06 19:50 -22.91021 -43.16538 22 ft 2 kts 356°
2026-05-06 19:50 -22.90998 -43.16539 23 ft 4 kts 356°
2026-05-06 19:50 -22.90971 -43.16541 21 ft 5 kts 356°
2026-05-06 19:50 -22.90950 -43.16570 21 ft 6 kts 270°
2026-05-06 19:51 -22.90953 -43.16610 21 ft 2 kts 266°
2026-05-06 19:51 -22.90953 -43.16615 21 ft 0 kts 266°